Pinopolis, SC

6:51 PM EDT on September 26, 2016 (GMT -0400)
Moncks Corner

Weather History for KMKS - April, 2013

Change the Weather History Date:

Monday, April 22, 2013

  Actual Average (KCHS) Record (KCHS)
Temperature  
Mean Temperature 59 °F 66 °F  
Max Temperature 68 °F 78 °F 91 °F (1988)
Min Temperature 50 °F 55 °F 37 °F (1950)
Degree Days  
Heating Degree Days 6 2  
Month to date heating degree days 76  
Since 1 July heating degree days 1951  
Cooling Degree Days 0 3  
Month to date cooling degree days 52  
Year to date cooling degree days 86  
Growing Degree Days 9 (Base 50)    
Moisture  
Dew Point 43 °F    
Average Humidity 57    
Maximum Humidity 72    
Minimum Humidity 47    
Precipitation  
Precipitation 0.00 in 0.10 in 1.42 in (1984)
Month to date precipitation 2.15  
Year to date precipitation 12.53  
Sea Level Pressure  
Sea Level Pressure 30.24 in    
Wind  
Wind Speed 10 mph (NNE)    
Max Wind Speed 14 mph    
Max Gust Speed 22 mph    
Visibility 9 miles    
Events      
T = Trace of Precipitation, MM = Missing Value Source: NWS Daily Summary

Daily Weather History Graph

Daily Weather History Graph

Search for Another Location

Airport or City:

Trip Planner

Search our weather history database for the weather conditions in past years. The results will help you decide how hot, cold, wet, or windy it might be!

Date:

Astronomy

Apr. 22, 2013 Rise Set
Actual Time 6:41 AM EDT 7:56 PM EDT
Civil Twilight 6:15 AM EDT 8:21 PM EDT
Nautical Twilight 5:45 AM EDT 8:52 PM EDT
Astronomical Twilight 5:13 AM EDT 9:24 PM EDT
Moon 4:52 PM EDT (4/22) 4:24 AM EDT (4/22)
Length of Visible Light 14h 06m
Length of Day
13h 14m
Waxing Gibbous, 87% of the Moon is Illuminated
Apr 22
Waxing Gibbous
Apr 25
Full
May 2
Last Quarter
May 9
New
May 18
First Quarter

Hourly Weather History & Observations

Time (EDT) Temp. Dew Point Humidity Pressure Visibility Wind Dir Wind Speed Gust Speed Precip Events Conditions
12:15 AM 57.2 °F 37.4 °F 48% 30.32 in 10.0 mi ENE 13.8 mph 20.7 mph N/A   Scattered Clouds
12:35 AM 57.2 °F 39.2 °F 51% 30.32 in 10.0 mi ENE 8.1 mph 16.1 mph N/A   Mostly Cloudy
12:55 AM 57.2 °F 39.2 °F 51% 30.32 in 10.0 mi ENE 11.5 mph 20.7 mph N/A   Mostly Cloudy
1:15 AM 57.2 °F 39.2 °F 51% 30.31 in 10.0 mi NE 13.8 mph - N/A   Scattered Clouds
1:35 AM 55.4 °F 39.2 °F 54% 30.30 in 10.0 mi NE 11.5 mph 16.1 mph N/A   Scattered Clouds
1:55 AM 55.4 °F 39.2 °F 54% 30.29 in 10.0 mi ENE 9.2 mph - N/A   Scattered Clouds
2:35 AM 55.4 °F 39.2 °F 54% 30.29 in 10.0 mi NE 11.5 mph 17.3 mph N/A   Mostly Cloudy
2:55 AM 55.4 °F 39.2 °F 54% 30.29 in 10.0 mi ENE 9.2 mph - N/A   Overcast
3:15 AM 53.6 °F 37.4 °F 54% 30.28 in 10.0 mi NE 9.2 mph - N/A   Overcast
3:35 AM 53.6 °F 37.4 °F 54% 30.28 in 10.0 mi NE 13.8 mph 18.4 mph N/A   Overcast
3:55 AM 53.6 °F 35.6 °F 51% 30.27 in 10.0 mi NNE 9.2 mph 17.3 mph N/A   Overcast
4:15 AM 53.6 °F 33.8 °F 47% 30.27 in 10.0 mi ENE 8.1 mph 18.4 mph N/A   Overcast
4:35 AM 53.6 °F 33.8 °F 47% 30.26 in 10.0 mi NNE 10.4 mph 18.4 mph N/A   Mostly Cloudy
4:55 AM 51.8 °F 33.8 °F 50% 30.26 in 10.0 mi NNE 10.4 mph 16.1 mph N/A   Mostly Cloudy
5:15 AM 51.8 °F 32.0 °F 47% 30.26 in 10.0 mi NE 12.7 mph 18.4 mph N/A   Scattered Clouds
5:35 AM 51.8 °F 32.0 °F 47% 30.25 in 10.0 mi NNE 12.7 mph 19.6 mph N/A   Mostly Cloudy
5:55 AM 51.8 °F 32.0 °F 47% 30.27 in 10.0 mi NNE 9.2 mph 21.9 mph N/A   Scattered Clouds
6:15 AM 50.0 °F 33.8 °F 54% 30.27 in 10.0 mi NNE 9.2 mph 16.1 mph N/A   Mostly Cloudy
6:35 AM 50.0 °F 35.6 °F 58% 30.26 in 10.0 mi NE 9.2 mph - N/A   Mostly Cloudy
6:55 AM 50.0 °F 37.4 °F 62% 30.27 in 10.0 mi NNE 9.2 mph - N/A   Clear
7:15 AM 50.0 °F 37.4 °F 62% 30.28 in 7.0 mi NNE 11.5 mph - N/A   Scattered Clouds
7:35 AM 50.0 °F 39.2 °F 66% 30.28 in 7.0 mi NE 12.7 mph 18.4 mph N/A   Clear
8:15 AM 50.0 °F 41.0 °F 71% 30.29 in 7.0 mi NNE 8.1 mph - N/A   Scattered Clouds
8:35 AM 50.0 °F 41.0 °F 71% 30.29 in 7.0 mi NNE 10.4 mph - N/A   Mostly Cloudy
8:55 AM 50.0 °F 41.0 °F 71% 30.30 in 10.0 mi NNE 9.2 mph 16.1 mph N/A   Mostly Cloudy
9:15 AM 50.0 °F 41.0 °F 71% 30.29 in 7.0 mi NNE 12.7 mph 18.4 mph N/A   Mostly Cloudy
9:35 AM 51.8 °F 42.8 °F 71% 30.28 in 7.0 mi NNE 9.2 mph - N/A   Scattered Clouds
9:55 AM 51.8 °F 42.8 °F 71% 30.29 in 10.0 mi North 11.5 mph - N/A   Clear
10:15 AM 51.8 °F 42.8 °F 71% 30.28 in 10.0 mi NNE 10.4 mph 19.6 mph N/A   Clear
10:55 AM 55.4 °F 44.6 °F 67% 30.28 in 7.0 mi NNE 10.4 mph 21.9 mph N/A   Clear
11:15 AM 53.6 °F 44.6 °F 72% 30.29 in 7.0 mi NNE 10.4 mph 17.3 mph N/A   Clear
11:35 AM 57.2 °F 44.6 °F 63% 30.28 in 10.0 mi NNE 9.2 mph - N/A   Clear
11:55 AM 59.0 °F 44.6 °F 59% 30.28 in 7.0 mi North 12.7 mph 18.4 mph N/A   Clear
12:15 PM 59.0 °F 44.6 °F 59% 30.27 in 10.0 mi North 9.2 mph 19.6 mph N/A   Clear
12:35 PM 59.0 °F 44.6 °F 59% 30.27 in 7.0 mi North 10.4 mph 17.3 mph N/A   Clear
12:55 PM 60.8 °F 46.4 °F 59% 30.27 in 10.0 mi North 9.2 mph 17.3 mph N/A   Clear
1:15 PM 62.6 °F 46.4 °F 55% 30.27 in 7.0 mi North 9.2 mph 16.1 mph N/A   Clear
1:35 PM 62.6 °F 46.4 °F 55% 30.26 in 10.0 mi North 9.2 mph 16.1 mph N/A   Clear
1:55 PM 60.8 °F 46.4 °F 59% 30.24 in 10.0 mi North 11.5 mph 18.4 mph N/A   Clear
2:15 PM 64.4 °F 48.2 °F 56% 30.23 in 7.0 mi North 9.2 mph 17.3 mph N/A   Clear
2:35 PM 64.4 °F 46.4 °F 52% 30.22 in 10.0 mi North 13.8 mph 18.4 mph N/A   Clear
2:55 PM 66.2 °F 48.2 °F 52% 30.21 in 7.0 mi NNE 13.8 mph 19.6 mph N/A   Clear
3:15 PM 66.2 °F 48.2 °F 52% 30.21 in 7.0 mi North 11.5 mph 20.7 mph N/A   Clear
3:35 PM 66.2 °F 48.2 °F 52% 30.20 in 7.0 mi North 13.8 mph 17.3 mph N/A   Clear
3:55 PM 68.0 °F 48.2 °F 49% 30.19 in 10.0 mi NNE 11.5 mph 18.4 mph N/A   Clear
4:15 PM 68.0 °F 48.2 °F 49% 30.18 in 10.0 mi North 12.7 mph 19.6 mph N/A   Clear
4:35 PM 68.0 °F 48.2 °F 49% 30.18 in 7.0 mi NNE 12.7 mph 19.6 mph N/A   Clear
4:55 PM 68.0 °F 48.2 °F 49% 30.17 in 7.0 mi North 9.2 mph 16.1 mph N/A   Clear
5:15 PM 68.0 °F 48.2 °F 49% 30.17 in 7.0 mi North 10.4 mph - N/A   Clear
5:35 PM 68.0 °F 48.2 °F 49% 30.16 in 7.0 mi North 10.4 mph 16.1 mph N/A   Clear
5:55 PM 68.0 °F 48.2 °F 49% 30.16 in 10.0 mi North 9.2 mph 16.1 mph N/A   Clear
6:15 PM 68.0 °F 48.2 °F 49% 30.16 in 7.0 mi North 9.2 mph - N/A   Clear
6:35 PM 68.0 °F 48.2 °F 49% 30.15 in 10.0 mi North 9.2 mph 18.4 mph N/A   Clear
6:55 PM 68.0 °F 48.2 °F 49% 30.15 in 7.0 mi North 9.2 mph - N/A   Clear
7:15 PM 66.2 °F 48.2 °F 52% 30.15 in 7.0 mi North 8.1 mph - N/A   Clear
7:35 PM 66.2 °F 48.2 °F 52% 30.16 in 10.0 mi North 6.9 mph - N/A   Clear
7:55 PM 64.4 °F 48.2 °F 56% 30.16 in 7.0 mi NNE 8.1 mph - N/A   Clear
8:15 PM 64.4 °F 48.2 °F 56% 30.16 in 7.0 mi NNE 6.9 mph - N/A   Clear
8:35 PM 62.6 °F 48.2 °F 59% 30.17 in 10.0 mi NNE 6.9 mph - N/A   Clear
8:55 PM 62.6 °F 48.2 °F 59% 30.18 in 10.0 mi NNE 5.8 mph - N/A   Clear
9:15 PM 60.8 °F 48.2 °F 63% 30.18 in 10.0 mi NNE 6.9 mph - N/A   Clear
9:35 PM 60.8 °F 48.2 °F 63% 30.18 in 10.0 mi NNE 6.9 mph - N/A   Clear
9:55 PM 60.8 °F 46.4 °F 59% 30.19 in 10.0 mi NNE 8.1 mph - N/A   Clear
10:15 PM 60.8 °F 46.4 °F 59% 30.20 in 10.0 mi NNE 6.9 mph - N/A   Clear
10:35 PM 59.0 °F 46.4 °F 63% 30.21 in 10.0 mi NNE 6.9 mph - N/A   Clear
10:55 PM 59.0 °F 46.4 °F 63% 30.21 in 10.0 mi NE 6.9 mph - N/A   Clear
11:15 PM 59.0 °F 46.4 °F 63% 30.20 in 7.0 mi NNE 9.2 mph - N/A   Clear
11:35 PM 59.0 °F 46.4 °F 63% 30.20 in 10.0 mi NNE 5.8 mph - N/A   Clear
11:55 PM 57.2 °F 46.4 °F 67% 30.20 in 10.0 mi NNE 5.8 mph - N/A   Clear